Voltar ao catálogo

STARLINK-36839

AtivoComunicaçõesSSO
NORAD 68125·PAYLOAD·🇺🇸 United States

Lançado Mar 8, 2026 de Vandenberg Space Force Base

Loading…

Próximas Passagens (próximas 24 horas)

TLE

AtualizadoSource: CelesTrak SupGP

Época: Sep 14, 2026, 21:40 UTC

1 68125C 26044AA  26257.90326389  .00012417  00000+0  38554-3 0  2579
2 68125  97.2853 216.9950 0001968  89.0979 285.2024 15.33424095    16

Acompanhe STARLINK-36839 em tempo real com AllMySat

Download on the App Store